Epoch 2013 Nov. 4.0 TT = JDT 2456600.5 T 2013 Nov. 15.66444 TT MPCW q 2.1945574 (2000.0) P Q n 0.14503980 Peri. 100.57334 -0.88709809 -0.44846953 a 3.5876599 Node 52.86954 +0.35148827 -0.80971887 e 0.3883040 Incl. 7.87493 +0.29918720 -0.37845796 P 6.80 From 137 observations 2007 Feb. 9-2014 Apr. 1, mean residual 0".5.
m1 = 15.2 + 5 logΔ + 10.0 log r